Location: ActonStarParty
(42.4766°N, 71.4538°W)
Time: 18:39:23
(UTC-05:00)

Amateur Radio Satellites - All Passes

Search period start: 22 November 2014 18:09
Search period end: 23 November 2014 18:09
Location: ActonStarParty, 42.4766°N, 71.4538°W

Satellite Date Start Highest point End Downlink Frequencies (MHz)
Time Altitude Azimuth
STRAND 1 22 Nov 18:16:11 18:21:04 43° 99° (E) 18:25:53 437.568
HO-68 22 Nov 18:17:00 18:22:24 24° 56° (ENE) 18:27:49 435.675
VERMONT LUNAR 22 Nov 18:21:08 18:24:45 64° 183° (S) 18:28:21 437.305
GONETS M04 22 Nov 18:24:58 18:33:02 37° 70° (ENE) 18:40:59
BRITE-PL 22 Nov 18:27:15 18:29:10 12° 62° (ENE) 18:31:02 437.365/2234.400
JAS-2 22 Nov 18:35:00 18:36:40 11° 279° (W) 18:38:21 435.910
CUTE-I 22 Nov 18:38:01 18:41:31 18° 269° (W) 18:45:02 437.470
RS-15 22 Nov 18:42:03 18:51:59 38° 324° (NW) 19:02:05 29.354- 29.394
CUTE 1.7 & AOD 2 22 Nov 18:42:49 18:45:03 14° 63° (ENE) 18:47:17 437.475
SHINDAISAT 22 Nov 18:47:22 18:48:40 17° 51° (NE) 18:49:57 437.305
PRISM 22 Nov 18:47:33 18:51:15 30° 292° (WNW) 18:54:56 437.425
PCSat 22 Nov 19:13:13 19:17:36 26° 108° (ESE) 19:22:01 145.827
CUBESAT XI-V 22 Nov 19:18:10 19:22:35 42° 289° (WNW) 19:26:56 437.345
SEEDS 22 Nov 19:19:07 19:22:44 29° 69° (ENE) 19:26:22 437.485
DX 1 22 Nov 19:24:10 19:26:30 14° 62° (ENE) 19:28:51 434.975-435.025
DOVE 4 22 Nov 19:29:19 19:33:07 25° 68° (ENE) 19:36:45 437.250
BEESAT 2 22 Nov 19:31:12 19:31:18 10° 107° (ESE) 19:31:24 435.950
PHONESAT 2.4 22 Nov 19:32:56 19:36:34 52° 192° (SSW) 19:40:11 2401.200-2431.200
AIST 1 22 Nov 19:35:55 19:40:14 62° 95° (E) 19:44:37
CANX-2 22 Nov 19:41:08 19:45:18 64° 75° (ENE) 19:49:30 2200.000
AAUSAT CUBESAT 2 22 Nov 19:43:22 19:47:14 40° 71° (ENE) 19:51:09 437.432
ZACube-1 22 Nov 19:50:19 19:51:37 11° 62° (ENE) 19:52:54 437.345
GOMX 1 22 Nov 19:52:50 19:57:39 58° 74° (ENE) 20:02:09 467.674
COMPASS 1 22 Nov 19:55:44 19:59:50 63° 74° (ENE) 20:03:59 437.405
STRAND 1 22 Nov 19:55:55 19:59:59 25° 296° (WNW) 20:04:03 437.568
VERMONT LUNAR 22 Nov 19:59:41 20:03:01 35° 199° (SSW) 20:06:21 437.305
BRITE-PL 22 Nov 20:01:56 20:07:07 85° 257° (WSW) 20:11:55 437.365/2234.400
AISAT 22 Nov 20:01:57 20:03:31 12° 60° (ENE) 20:05:05 437.250
HO-68 22 Nov 20:02:13 20:09:24 75° 255° (WSW) 20:16:38 435.675
DELFI C3 22 Nov 20:07:51 20:11:28 32° 70° (ENE) 20:15:07 145.870
CUTE 1.7 & AOD 2 22 Nov 20:16:24 20:20:31 55° 260° (W) 20:24:41 437.475
50 SAT 22 Nov 20:16:28 20:17:08 10° 62° (ENE) 20:17:48 437.505
GONETS M04 22 Nov 20:21:39 20:30:04 51° 271° (W) 20:38:25
FUNcube-1 22 Nov 20:23:58 20:27:26 25° 68° (ENE) 20:30:52 145.935
UKube-1 22 Nov 20:26:09 20:30:26 59° 73° (ENE) 20:34:45 .
CUBEBUG 2 22 Nov 20:31:51 20:35:54 41° 72° (ENE) 20:39:53 437.445
CINEMA 3 22 Nov 20:32:19 20:36:45 68° 75° (ENE) 20:41:02 145.822/145.860
UWE-3 22 Nov 20:39:56 20:43:59 44° 72° (ENE) 20:47:59 435.000/436.395/437.385
Oscar 11 22 Nov 20:40:21 20:44:39 89° 80° (E) 20:48:59 145.826/435.025
BEESAT 3 22 Nov 20:52:27 20:56:33 86° 122° (ESE) 21:00:45 437.485
SEEDS 22 Nov 20:55:10 20:58:34 24° 266° (W) 21:02:00 437.485
PCSat 22 Nov 20:55:31 21:00:43 47° 306° (NW) 21:05:59 145.827
DX 1 22 Nov 20:57:55 21:02:15 61° 259° (WSW) 21:06:37 434.975-435.025
ESTCUBE 1 22 Nov 20:58:12 21:01:08 17° 63° (ENE) 21:04:04 437.505/2401.250
RS-15 22 Nov 21:00:36 21:08:41 22° 358° (N) 21:16:56 29.354- 29.394
BEESAT 2 22 Nov 21:04:48 21:08:55 79° 304° (WNW) 21:13:08 435.950
DOVE 4 22 Nov 21:06:30 21:10:46 33° 263° (W) 21:14:50 437.250
VELOX 1 22 Nov 21:11:12 21:15:36 57° 73° (ENE) 21:20:00 145.980
PHONESAT 2.4 22 Nov 21:12:10 21:14:57 20° 208° (SSW) 21:17:44 2401.200-2431.200
AIST 1 22 Nov 21:16:25 21:18:22 13° 293° (WNW) 21:20:19
AAUSAT CUBESAT 2 22 Nov 21:20:20 21:23:06 17° 268° (W) 21:25:53 437.432
CANX-2 22 Nov 21:20:32 21:21:41 11° 271° (W) 21:22:51 2200.000
AIST 2 22 Nov 21:22:38 21:26:51 80° 121° (ESE) 21:31:10 435.215
ZACube-1 22 Nov 21:23:12 21:27:27 71° 258° (WSW) 21:31:38 437.345
GOMX 1 22 Nov 21:33:13 21:36:03 15° 268° (W) 21:38:47 467.674
HUMSAT D 22 Nov 21:34:16 21:38:26 87° 257° (WSW) 21:42:35 437.325/437.525
COMPASS 1 22 Nov 21:34:50 21:36:00 11° 271° (W) 21:37:10 437.405
AISAT 22 Nov 21:35:01 21:39:31 79° 257° (WSW) 21:44:02 437.250
VERMONT LUNAR 22 Nov 21:40:47 21:40:52 10° 215° (SW) 21:40:56 437.305
DELFI C3 22 Nov 21:43:46 21:46:50 21° 266° (W) 21:49:57 145.870
TIGRISAT 22 Nov 21:44:09 21:47:44 24° 95° (E) 21:51:21 435.000
POLYITAN 1 22 Nov 21:47:41 21:50:35 18° 93° (E) 21:53:28 437.675
50 SAT 22 Nov 21:47:51 21:51:53 72° 258° (WSW) 21:55:56 437.505
QB50P2 22 Nov 21:51:05 21:54:11 20° 93° (E) 21:57:16 145.880/145.840
UNISAT 6 22 Nov 21:55:25 21:59:23 32° 97° (E) 22:03:25 437.425
HO-68 22 Nov 21:55:29 21:58:14 12° 273° (W) 22:00:59 435.675
DUCHIFAT 1 22 Nov 21:59:21 22:02:45 23° 95° (E) 22:06:08 145.980
FUNcube-1 22 Nov 22:00:03 22:03:43 28° 264° (W) 22:07:21 145.935
CUBEBUG 1 22 Nov 22:01:50 22:06:15 71° 75° (ENE) 22:10:42 437.445
UKube-1 22 Nov 22:05:00 22:06:59 13° 269° (W) 22:08:59 .
SPROUT 22 Nov 22:06:22 22:09:20 18° 65° (ENE) 22:12:18 437.525
TISAT 1 22 Nov 22:07:44 22:10:59 22° 66° (ENE) 22:14:15 437.305
CUBEBUG 2 22 Nov 22:09:57 22:12:48 17° 267° (W) 22:15:37 437.445
CINEMA 3 22 Nov 22:13:07 22:14:22 11° 270° (W) 22:15:37 145.822/145.860
NANOSAT C BR1 22 Nov 22:17:44 22:21:41 37° 98° (E) 22:25:35 145.865
UWE-3 22 Nov 22:18:05 22:20:45 16° 268° (W) 22:23:24 435.000/436.395/437.385
ANTELSAT 22 Nov 22:23:26 22:27:49 65° 101° (ESE) 22:32:18 437.575/2403.000
QB50P1 22 Nov 22:27:00 22:31:06 48° 100° (E) 22:35:10 145.935-145.965
AUBIESAT-1 22 Nov 22:29:47 22:31:43 13° 54° (NE) 22:33:44 437.475
M-CUBED/EXP-1 PRIME 22 Nov 22:31:57 22:34:16 15° 55° (NE) 22:36:42 437.505
BEESAT 3 22 Nov 22:33:09 22:35:23 14° 322° (NW) 22:37:39 437.485
ESTCUBE 1 22 Nov 22:33:09 22:37:35 52° 260° (W) 22:42:04 437.505/2401.250
PCSat 22 Nov 22:44:17 22:45:33 11° 328° (NNW) 22:46:48 145.827
BEESAT 2 22 Nov 22:46:08 22:47:57 12° 324° (NW) 22:49:45 435.950
VELOX 1 22 Nov 22:50:09 22:52:32 14° 269° (W) 22:54:56 145.980
POPSAT HIP 1 22 Nov 22:51:13 22:55:28 90° 283° (WNW) 22:59:41 437.405
ITUPSAT 1 22 Nov 22:51:45 22:53:20 12° 58° (ENE) 22:54:55 437.325
BUGSAT 1 22 Nov 22:56:56 23:01:04 88° 103° (ESE) 23:05:07 437.445
SWISSCUBE 22 Nov 23:02:37 23:05:33 16° 62° (ENE) 23:08:29 437.505
AIST 2 22 Nov 23:03:29 23:06:03 15° 321° (NW) 23:08:39 435.215
CUSAT 1 22 Nov 23:10:34 23:14:21 30° 77° (ENE) 23:19:12 437.405
RS-15 22 Nov 23:15:42 23:25:39 35° 33° (NNE) 23:35:53 29.354- 29.394
DANDE 22 Nov 23:20:29 23:24:08 31° 78° (ENE) 23:28:51 436.750
TIGRISAT 22 Nov 23:20:38 23:24:31 32° 291° (WNW) 23:28:28 435.000
POLYITAN 1 22 Nov 23:22:46 23:26:43 39° 289° (WNW) 23:30:39 437.675
QB50P2 22 Nov 23:26:20 23:30:14 36° 290° (WNW) 23:34:06 145.880/145.840
UNISAT 6 22 Nov 23:32:29 23:36:03 25° 293° (WNW) 23:39:41 437.425
BEESAT 22 Nov 23:33:07 23:37:12 29° 67° (ENE) 23:41:18 436.000
DUCHIFAT 1 22 Nov 23:34:57 23:38:39 30° 291° (WNW) 23:42:19 145.980
SPROUT 22 Nov 23:40:59 23:45:07 43° 261° (W) 23:49:15 437.525
CUBEBUG 1 22 Nov 23:41:47 23:43:07 11° 271° (W) 23:44:26 437.445
TISAT 1 22 Nov 23:42:42 23:46:37 35° 262° (W) 23:50:34 437.305
NANOSAT C BR1 22 Nov 23:54:16 23:57:19 20° 294° (WNW) 00:00:22 145.865
Oscar 19 22 Nov 23:55:55 23:57:16 11° 88° (E) 23:58:37 437.125/150
ANTELSAT 23 Nov 00:01:59 00:04:08 14° 298° (WNW) 00:06:18 437.575/2403.000
AUBIESAT-1 23 Nov 00:02:10 00:06:04 68° 254° (WSW) 00:10:24 437.475
QB50P1 23 Nov 00:04:03 00:06:38 16° 296° (WNW) 00:09:12 145.935-145.965
M-CUBED/EXP-1 PRIME 23 Nov 00:04:55 00:08:46 57° 255° (WSW) 00:13:02 437.505
ITUPSAT 1 23 Nov 00:25:40 00:30:29 90° 258° (WSW) 00:35:20 437.325
ISS 23 Nov 00:25:58 00:29:13 63° 143° (SE) 00:32:29 145.825
STARS 23 Nov 00:26:08 00:28:25 14° 62° (ENE) 00:30:43 437.465
MaSat-1 23 Nov 00:31:31 00:33:33 26° 59° (ENE) 00:35:37 437.345
SWISSCUBE 23 Nov 00:38:09 00:42:54 62° 259° (WSW) 00:47:42 437.505
ITAMSAT 1 23 Nov 00:40:53 00:42:25 11° 88° (E) 00:43:56 435.822/435.867
CUSAT 1 23 Nov 00:53:44 00:57:26 27° 264° (W) 01:02:05 437.405
KKS-1 23 Nov 00:57:02 01:01:13 41° 71° (ENE) 01:05:24 437.445
DANDE 23 Nov 01:04:07 01:07:34 24° 264° (W) 01:11:52 436.750
BEESAT 23 Nov 01:10:40 01:14:57 32° 263° (W) 01:19:15 436.000
RS-15 23 Nov 01:28:12 01:39:27 86° 239° (WSW) 01:51:13 29.354- 29.394
Oscar 19 23 Nov 01:32:05 01:37:16 88° 285° (WNW) 01:42:27 437.125/150
YUBILEINY 23 Nov 01:37:33 01:45:22 37° 85° (E) 01:53:09 435.215
STARS 23 Nov 02:00:02 02:04:24 62° 259° (WSW) 02:08:47 437.465
ISS 23 Nov 02:03:16 02:06:05 26° 341° (NNW) 02:08:55 145.825
HORYU 2 23 Nov 02:03:49 02:06:44 17° 92° (E) 02:09:38 437.375
ITAMSAT 1 23 Nov 02:17:21 02:22:35 87° 285° (WNW) 02:27:45 435.822/435.867
Gurwin Techsat 1B 23 Nov 02:29:07 02:34:27 71° 102° (ESE) 02:39:44 435.225
KKS-1 23 Nov 02:34:50 02:38:02 19° 267° (W) 02:41:15 437.445
SO-50 23 Nov 03:01:36 03:04:09 15° 109° (ESE) 03:06:44 436.795
MOZHAYETS 4 23 Nov 03:13:35 03:17:37 31° 69° (ENE) 03:21:42
Oscar 19 23 Nov 03:13:46 03:15:50 12° 302° (WNW) 03:17:53 437.125/150
YUBILEINY 23 Nov 03:33:25 03:41:54 50° 285° (WNW) 03:50:23 435.215
AO-7 23 Nov 03:33:42 03:41:39 45° 100° (E) 03:49:33 29.400- 29.500
BEESAT 3 23 Nov 03:35:54 03:37:05 11° 35° (NE) 03:38:15 437.485
HORYU 2 23 Nov 03:39:21 03:43:39 47° 289° (WNW) 03:47:58 437.375
ISS 23 Nov 03:41:21 03:43:33 16° 1° (N) 03:45:45 145.825
RS-15 23 Nov 03:42:25 03:50:16 22° 260° (W) 03:58:22 29.354- 29.394
BEESAT 2 23 Nov 03:47:57 03:49:50 13° 37° (NE) 03:51:43 435.950
JAS-2 23 Nov 03:53:49 03:59:13 23° 88° (E) 04:04:10 435.910
ITAMSAT 1 23 Nov 03:59:14 04:01:16 12° 303° (WNW) 04:03:17 435.822/435.867
PCSat 23 Nov 03:59:41 04:04:17 27° 47° (NE) 04:08:52 145.827
PRISM 23 Nov 04:04:15 04:07:25 21° 66° (ENE) 04:10:37 437.425
AIST 2 23 Nov 04:07:39 04:09:00 11° 34° (NE) 04:10:22 435.215
Gurwin Techsat 1B 23 Nov 04:10:33 04:13:49 17° 300° (WNW) 04:17:04 435.225
SO-50 23 Nov 04:39:39 04:44:08 64° 306° (NW) 04:48:47 436.795
CUBESAT XI-V 23 Nov 04:45:48 04:49:28 23° 66° (ENE) 04:53:08 437.345
MOZHAYETS 4 23 Nov 04:50:59 04:54:51 27° 265° (W) 04:58:45
BEESAT 3 23 Nov 05:11:57 05:16:09 65° 55° (NE) 05:20:16 437.485
CUTE-I 23 Nov 05:13:01 05:17:12 23° 93° (E) 05:21:21 437.470
ISS 23 Nov 05:18:03 05:20:59 28° 21° (NNE) 05:23:55 145.825
BEESAT 2 23 Nov 05:24:37 05:28:51 79° 57° (ENE) 05:33:01 435.950
AO-7 23 Nov 05:26:38 05:34:22 44° 299° (WNW) 05:42:07 29.400- 29.500
STRAND 1 23 Nov 05:32:35 05:37:41 67° 73° (ENE) 05:42:48 437.568
JAS-2 23 Nov 05:37:42 05:44:58 67° 289° (WNW) 05:51:23 435.910
PRISM 23 Nov 05:38:55 05:42:46 35° 262° (W) 05:46:39 437.425
PCSat 23 Nov 05:42:43 05:47:58 51° 246° (WSW) 05:53:10 145.827
AIST 1 23 Nov 05:43:42 05:46:37 17° 70° (ENE) 05:49:30
AIST 2 23 Nov 05:44:13 05:48:31 64° 54° (NE) 05:52:45 435.215
O/OREOS (USA 219) 23 Nov 06:04:10 06:08:35 60° 109° (ESE) 06:13:01 437.305
Cubesat XI-IV 23 Nov 06:09:48 06:15:10 77° 103° (ESE) 06:20:28 437.490
CUBESAT XI-V 23 Nov 06:22:14 06:26:39 40° 262° (W) 06:31:07 437.345
SO-50 23 Nov 06:23:37 06:25:39 13° 327° (NNW) 06:27:43 436.795
BEESAT 3 23 Nov 06:52:00 06:53:50 13° 252° (WSW) 06:55:39 437.485
CUTE-I 23 Nov 06:52:25 06:57:29 46° 290° (WNW) 07:02:31 437.470
ISS 23 Nov 06:54:33 06:57:46 50° 219° (SW) 07:00:59 145.825
BEESAT 2 23 Nov 07:06:01 07:06:29 10° 253° (WSW) 07:06:58 435.950
STRAND 1 23 Nov 07:14:24 07:17:20 15° 270° (W) 07:20:17 437.568
AIST 1 23 Nov 07:20:21 07:24:31 43° 268° (W) 07:28:38
AO-7 23 Nov 07:23:31 07:24:59 11° 321° (NW) 07:26:27 29.400- 29.500
AIST 2 23 Nov 07:24:30 07:26:37 14° 252° (WSW) 07:28:42 435.215
JAS-2 23 Nov 07:25:01 07:28:28 14° 310° (NW) 07:31:47 435.910
GONETS M04 23 Nov 07:26:52 07:34:52 41° 86° (E) 07:42:55
CANX-2 23 Nov 07:28:43 07:29:49 11° 89° (E) 07:30:55 2200.000
HO-68 23 Nov 07:30:31 07:35:36 20° 91° (E) 07:40:38 435.675
O/OREOS (USA 219) 23 Nov 07:45:37 07:48:24 16° 307° (NW) 07:51:11 437.305
Cubesat XI-IV 23 Nov 07:51:32 07:54:35 16° 301° (WNW) 07:57:39 437.490
GOMX 1 23 Nov 07:55:49 07:57:48 13° 91° (E) 07:59:46 467.674
CUTE 1.7 & AOD 2 23 Nov 08:01:47 08:05:16 24° 94° (E) 08:08:44 437.475
BRITE-PL 23 Nov 08:06:58 08:10:22 24° 95° (E) 08:13:46 437.365/2234.400
CINEMA 3 23 Nov 08:28:10 08:30:22 14° 91° (E) 08:32:35 145.822/145.860
Oscar 11 23 Nov 08:28:30 08:31:09 16° 91° (E) 08:33:47 145.826/435.025
SEEDS 23 Nov 08:38:26 08:42:36 52° 100° (E) 08:46:46 437.485
POLYITAN 1 23 Nov 08:42:30 08:45:11 17° 64° (ENE) 08:47:52 437.675
TIGRISAT 23 Nov 08:44:22 08:47:44 23° 67° (ENE) 08:51:06 435.000
QB50P2 23 Nov 08:45:38 08:48:29 18° 65° (ENE) 08:51:21 145.880/145.840
DX 1 23 Nov 08:46:34 08:49:55 21° 94° (E) 08:53:15 434.975-435.025
DUCHIFAT 1 23 Nov 08:53:24 08:56:35 21° 66° (ENE) 08:59:46 145.980
UNISAT 6 23 Nov 08:55:45 08:59:31 31° 69° (ENE) 09:03:16 437.425
AAUSAT CUBESAT 2 23 Nov 09:01:42 09:05:56 72° 102° (ESE) 09:10:10 437.432
CANX-2 23 Nov 09:01:56 09:06:12 68° 285° (WNW) 09:10:28 2200.000
DOVE 4 23 Nov 09:04:34 09:08:40 58° 101° (E) 09:12:50 437.250
NANOSAT C BR1 23 Nov 09:11:33 09:15:21 32° 69° (ENE) 09:19:08 145.865
ZACube-1 23 Nov 09:12:10 09:15:18 20° 94° (E) 09:18:27 437.345
COMPASS 1 23 Nov 09:14:48 09:19:02 72° 285° (WNW) 09:23:15 437.405
HO-68 23 Nov 09:16:48 09:23:59 76° 289° (WNW) 09:31:07 435.675
HUMSAT D 23 Nov 09:19:50 09:22:09 14° 91° (E) 09:24:28 437.325/437.525
QB50P1 23 Nov 09:20:46 09:24:45 40° 71° (ENE) 09:28:45 145.935-145.965
DELFI C3 23 Nov 09:22:56 09:27:00 52° 100° (E) 09:31:02 145.870
GONETS M04 23 Nov 09:23:13 09:31:33 46° 287° (WNW) 09:39:59
ANTELSAT 23 Nov 09:23:34 09:27:48 62° 74° (ENE) 09:32:01 437.575/2403.000
AISAT 23 Nov 09:26:46 09:29:55 19° 93° (E) 09:33:03 437.250
50 SAT 23 Nov 09:29:39 09:32:02 15° 92° (E) 09:34:24 437.505
GOMX 1 23 Nov 09:32:15 09:36:16 50° 287° (WNW) 09:40:19 467.674
CUTE 1.7 & AOD 2 23 Nov 09:37:26 09:41:13 31° 291° (WNW) 09:44:59 437.475
POPSAT HIP 1 23 Nov 09:44:49 09:49:05 75° 75° (ENE) 09:53:21 437.405
BRITE-PL 23 Nov 09:45:24 09:48:55 27° 292° (WNW) 09:52:24 437.365/2234.400
FUNcube-1 23 Nov 09:47:23 09:51:28 48° 99° (E) 09:55:37 145.935
BUGSAT 1 23 Nov 09:47:37 09:51:52 67° 74° (ENE) 09:56:05 437.445
UKube-1 23 Nov 09:49:32 09:53:54 80° 285° (WNW) 09:58:13 .
CUBEBUG 1 23 Nov 09:52:34 09:54:24 12° 90° (E) 09:56:13 437.445
CUBEBUG 2 23 Nov 09:58:42 10:02:55 89° 102° (ESE) 10:07:13 437.445
Oscar 11 23 Nov 10:03:24 10:07:35 48° 288° (WNW) 10:11:46 145.826/435.025
CINEMA 3 23 Nov 10:03:49 10:07:52 50° 287° (WNW) 10:12:00 145.822/145.860
UWE-3 23 Nov 10:05:30 10:09:44 88° 283° (WNW) 10:14:02 435.000/436.395/437.385
SEEDS 23 Nov 10:15:33 10:18:01 15° 296° (WNW) 10:20:29 437.485
POLYITAN 1 23 Nov 10:16:39 10:20:46 47° 260° (W) 10:24:54 437.675
QB50P2 23 Nov 10:20:01 10:24:05 43° 261° (W) 10:28:11 145.880/145.840
TIGRISAT 23 Nov 10:20:32 10:24:21 31° 263° (W) 10:28:10 435.000
DX 1 23 Nov 10:22:17 10:26:15 35° 291° (WNW) 10:30:11 434.975-435.025
ESTCUBE 1 23 Nov 10:25:45 10:29:48 31° 96° (E) 10:33:47 437.505/2401.250
DUCHIFAT 1 23 Nov 10:28:18 10:32:14 36° 262° (W) 10:36:11 145.980
UNISAT 6 23 Nov 10:32:54 10:36:21 23° 265° (W) 10:39:47 437.425
SHINDAISAT 23 Nov 10:35:06 10:36:37 62° 308° (NW) 10:38:08 437.305
VELOX 1 23 Nov 10:38:02 10:42:28 76° 285° (WNW) 10:46:52 145.980
AAUSAT CUBESAT 2 23 Nov 10:39:41 10:41:02 11° 298° (WNW) 10:42:24 437.432
DOVE 4 23 Nov 10:44:09 10:46:01 13° 297° (WNW) 10:47:54 437.250
NANOSAT C BR1 23 Nov 10:47:53 10:51:16 23° 265° (W) 10:54:39 145.865
ZACube-1 23 Nov 10:47:56 10:51:46 35° 289° (WNW) 10:55:39 437.345
HUMSAT D 23 Nov 10:54:13 10:58:13 48° 287° (WNW) 11:02:15 437.325/437.525
QB50P1 23 Nov 10:57:52 11:00:49 18° 267° (W) 11:03:47 145.935-145.965
DELFI C3 23 Nov 10:59:37 11:01:53 15° 296° (WNW) 11:04:08 145.870
AISAT 23 Nov 11:02:35 11:06:44 41° 290° (WNW) 11:10:52 437.250
ANTELSAT 23 Nov 11:03:32 11:05:02 12° 270° (W) 11:06:31 437.575/2403.000
50 SAT 23 Nov 11:03:43 11:07:34 43° 288° (WNW) 11:11:26 437.505
HO-68 23 Nov 11:06:28 11:10:32 16° 309° (NW) 11:14:36 435.675
Oscar 19 23 Nov 11:12:25 11:15:56 19° 62° (ENE) 11:19:27 437.125/150
FUNcube-1 23 Nov 11:24:56 11:27:29 16° 295° (WNW) 11:30:03 145.935
BUGSAT 1 23 Nov 11:26:39 11:27:47 11° 270° (W) 11:28:56 437.445
CUBEBUG 1 23 Nov 11:26:52 11:31:12 61° 286° (WNW) 11:35:28 437.445
TISAT 1 23 Nov 11:27:11 11:31:02 33° 97° (E) 11:34:50 437.305
SPROUT 23 Nov 11:27:27 11:31:14 30° 96° (E) 11:35:00 437.525
SO-50 23 Nov 11:30:37 11:34:26 22° 42° (NE) 11:38:16 436.795
AUBIESAT-1 23 Nov 11:46:48 11:48:04 11° 93° (E) 11:49:20 437.475
YUBILEINY 23 Nov 11:47:11 11:52:56 19° 60° (ENE) 11:58:38 435.215
M-CUBED/EXP-1 PRIME 23 Nov 11:48:58 11:51:14 13° 94° (E) 11:53:29 437.505
ITAMSAT 1 23 Nov 11:58:23 12:02:11 21° 62° (ENE) 12:05:59 435.822/435.867
ESTCUBE 1 23 Nov 12:02:45 12:06:34 27° 293° (WNW) 12:10:22 437.505/2401.250
Gurwin Techsat 1B 23 Nov 12:13:35 12:16:52 17° 60° (ENE) 12:20:09 435.225
CUSAT 1 23 Nov 12:26:14 12:28:28 21° 95° (E) 12:30:34 437.405
ITUPSAT 1 23 Nov 12:26:37 12:30:23 23° 94° (E) 12:34:08 437.325
SWISSCUBE 23 Nov 12:38:23 12:42:42 32° 97° (E) 12:46:58 437.505
DANDE 23 Nov 12:38:36 12:41:09 26° 97° (E) 12:43:28 436.750
AO-7 23 Nov 12:45:39 12:50:05 16° 45° (NE) 12:54:31 29.400- 29.500
Oscar 19 23 Nov 12:49:48 12:54:49 58° 259° (W) 12:59:52 437.125/150
TISAT 1 23 Nov 13:03:28 13:06:41 22° 294° (WNW) 13:09:54 437.305
HORYU 2 23 Nov 13:03:33 13:06:31 18° 64° (ENE) 13:09:31 437.375
SPROUT 23 Nov 13:03:44 13:07:13 25° 293° (WNW) 13:10:40 437.525
BEESAT 23 Nov 13:09:50 13:14:36 62° 101° (ESE) 13:19:20 436.000
SO-50 23 Nov 13:10:34 13:15:23 62° 240° (WSW) 13:20:12 436.795
AUBIESAT-1 23 Nov 13:18:42 13:23:39 90° 292° (WNW) 13:28:31 437.475
M-CUBED/EXP-1 PRIME 23 Nov 13:21:49 13:26:46 78° 290° (WNW) 13:31:39 437.505
ITAMSAT 1 23 Nov 13:36:10 13:41:16 54° 259° (W) 13:46:24 435.822/435.867
YUBILEINY 23 Nov 13:42:22 13:51:09 86° 82° (E) 13:59:50 435.215
STARS 23 Nov 13:50:12 13:53:41 23° 95° (E) 13:57:10 437.465
Gurwin Techsat 1B 23 Nov 13:50:57 13:56:14 71° 258° (WSW) 14:01:34 435.225
RS-15 23 Nov 13:51:44 13:53:01 10° 93° (E) 13:54:18 29.354- 29.394
ITUPSAT 1 23 Nov 14:03:55 14:08:25 40° 290° (WNW) 14:12:53 437.325
JAS-2 23 Nov 14:07:56 14:11:49 15° 51° (NE) 14:15:43 435.910
SWISSCUBE 23 Nov 14:16:22 14:20:28 29° 293° (WNW) 14:24:32 437.505
KKS-1 23 Nov 14:23:59 14:28:27 79° 103° (ESE) 14:32:52 437.445
VERMONT LUNAR 23 Nov 14:29:30 14:31:28 14° 149° (SSE) 14:33:26 437.305
AO-7 23 Nov 14:33:08 14:41:16 64° 66° (ENE) 14:49:27 29.400- 29.500
O/OREOS (USA 219) 23 Nov 14:35:25 14:38:04 15° 52° (NE) 14:40:43 437.305
HORYU 2 23 Nov 14:38:36 14:42:51 46° 260° (W) 14:47:09 437.375
BEESAT 23 Nov 14:49:02 14:51:56 16° 298° (WNW) 14:54:51 436.000
AUBIESAT-1 23 Nov 14:55:35 14:57:55 14° 306° (NW) 15:00:15 437.475
M-CUBED/EXP-1 PRIME 23 Nov 14:59:13 15:01:00 12° 307° (NW) 15:02:46 437.505
STARS 23 Nov 15:26:17 15:30:14 33° 291° (WNW) 15:34:10 437.465
MaSat-1 23 Nov 15:35:05 15:38:07 71° 296° (WNW) 15:40:54 437.345
YUBILEINY 23 Nov 15:41:04 15:46:44 20° 283° (WNW) 15:52:23 435.215
PHONESAT 2.4 23 Nov 15:43:35 15:46:48 28° 157° (SSE) 15:50:02 2401.200-2431.200
JAS-2 23 Nov 15:47:52 15:55:17 63° 70° (ENE) 16:03:03 435.910
RS-15 23 Nov 15:52:08 16:02:46 59° 114° (ESE) 16:13:23 29.354- 29.394
Cubesat XI-IV 23 Nov 15:54:42 15:58:24 19° 61° (ENE) 16:02:05 437.490
KKS-1 23 Nov 16:03:01 16:04:27 11° 300° (WNW) 16:05:52 437.445
VERMONT LUNAR 23 Nov 16:05:58 16:09:25 42° 164° (SSE) 16:12:53 437.305
O/OREOS (USA 219) 23 Nov 16:13:30 16:17:55 63° 251° (WSW) 16:22:20 437.305
AO-7 23 Nov 16:27:35 16:34:32 29° 265° (W) 16:41:33 29.400- 29.500
CUTE-I 23 Nov 16:35:18 16:40:18 41° 68° (ENE) 16:45:18 437.470
MOZHAYETS 4 23 Nov 16:44:42 16:49:22 70° 102° (ESE) 16:54:00
PRISM 23 Nov 17:21:33 17:25:19 30° 97° (E) 17:29:04 437.425
PHONESAT 2.4 23 Nov 17:21:38 17:25:18 61° 173° (S) 17:28:59 2401.200-2431.200
Cubesat XI-IV 23 Nov 17:32:40 17:37:59 62° 258° (WSW) 17:43:19 437.490
JAS-2 23 Nov 17:34:22 17:40:43 29° 269° (W) 17:47:21 435.910
GONETS M04 23 Nov 17:36:33 17:42:53 21° 62° (ENE) 17:49:10
STRAND 1 23 Nov 17:43:25 17:47:16 21° 93° (E) 17:51:05 437.568
VERMONT LUNAR 23 Nov 17:44:08 17:47:44 65° 181° (S) 17:51:20 437.305
